Weather History for Klamath Falls, OR

Change the Weather History Date:

Wednesday, March 20, 2013

  Actual Average Record
Temperature  
Mean Temperature 41 °F 39 °F  
Max Temperature 53 °F 51 °F 73 °F (1960)
Min Temperature 29 °F 27 °F 11 °F (1952)
Degree Days  
Heating Degree Days 24 26  
Month to date heating degree days 495 540  
Since 1 July heating degree days 5186 5381  
Cooling Degree Days 0 0  
Month to date cooling degree days 0 0  
Year to date cooling degree days 0 0  
Moisture  
Dew Point 35 °F    
Average Humidity 71    
Maximum Humidity 82    
Minimum Humidity 59    
Precipitation  
Precipitation 0.09 in 0.04 in 0.20 in (1938)
Month to date precipitation 0.25 0.76  
Year to date precipitation 1.03 4.53  
Sea Level Pressure  
Sea Level Pressure 29.84 in    
Wind  
Wind Speed 18 mph (SW)    
Max Wind Speed 32 mph    
Max Gust Speed 44 mph    
Visibility 10 miles    
Events Rain    
T = Trace of Precipitation, MM = Missing Value Source: NWS Daily Summary

Daily Weather History Graph

Daily Weather History Graph

Search for Another Location

Airport:

Trip Planner

Search our weather history database for the weather conditions in past years. The results will help you decide how hot, cold, wet, or windy it might be!

Date:

Astronomy

Mar. 20, 2013 Rise Set
Actual Time 7:09 AM PDT 7:19 PM PDT
Civil Twilight 6:41 AM PDT 7:47 PM PDT
Nautical Twilight 6:09 AM PDT 8:20 PM PDT
Astronomical Twilight 5:35 AM PDT 8:53 PM PDT
Moon 12:53 PM PDT (3/20) 2:58 AM PDT (3/20)
Length of Visible Light 13h 05m
Length of Day
12h 09m
First Quarter, 60% of the Moon is Illuminated
Mar 20
First Quarter
Mar 27
Full
Apr 2
Last Quarter
Apr 10
New
Apr 18
First Quarter

Hourly Weather History & Observations

Time (PDT) Temp. Windchill Dew Point Humidity Pressure Visibility Wind Dir Wind Speed Gust Speed Precip Events Conditions
12:53 AM 45.0 °F 36.4 °F 37.0 °F 74% 29.79 in 10.0 mi South 23.0 mph - 0.00 in   Mostly Cloudy
1:53 AM 45.0 °F 36.9 °F 36.0 °F 71% 29.80 in 10.0 mi South 20.7 mph 32.2 mph N/A   Overcast
2:53 AM 44.1 °F 36.2 °F 35.1 °F 71% 29.80 in 10.0 mi South 18.4 mph - N/A   Overcast
3:53 AM 43.0 °F 35.1 °F 37.0 °F 80% 29.79 in 10.0 mi SSE 17.3 mph - 0.01 in Rain Light Rain
4:53 AM 43.0 °F 37.7 °F 37.9 °F 82% 29.79 in 10.0 mi South 9.2 mph 20.7 mph 0.01 in Rain Light Rain
5:03 AM 42.8 °F 36.6 °F 37.4 °F 81% 29.82 in 10.0 mi South 11.5 mph - 0.00 in   Overcast
5:24 AM 42.8 °F 36.6 °F 37.4 °F 81% 29.82 in 10.0 mi South 11.5 mph - 0.00 in   Overcast
5:53 AM 43.0 °F 38.2 °F 37.0 °F 80% 29.80 in 10.0 mi South 8.1 mph - 0.00 in   Overcast
6:03 AM 42.8 °F 38.6 °F 37.4 °F 81% 29.83 in 7.0 mi SSE 6.9 mph - N/A   Overcast
6:53 AM 42.1 °F 34.2 °F 36.0 °F 79% 29.80 in 7.0 mi South 16.1 mph - N/A   Mostly Cloudy
7:53 AM 42.8 °F 35.4 °F 35.6 °F 76% 29.80 in 10.0 mi South 15.0 mph - N/A   Mostly Cloudy
8:53 AM 44.1 °F 35.9 °F 35.1 °F 71% 29.78 in 10.0 mi South 19.6 mph - N/A   Mostly Cloudy
9:53 AM 46.0 °F 38.5 °F 35.1 °F 66% 29.78 in 10.0 mi South 19.6 mph - N/A   Mostly Cloudy
10:53 AM 48.2 °F - 35.6 °F 62% 29.78 in 10.0 mi SW 13.8 mph 25.3 mph N/A   Mostly Cloudy
11:10 AM 48.2 °F - 35.6 °F 62% 29.81 in 10.0 mi SW 20.7 mph 25.3 mph 0.00 in Rain Light Rain
11:53 AM 48.9 °F - 36.0 °F 61% 29.78 in 10.0 mi SW 25.3 mph 33.4 mph 0.00 in Rain Light Rain
12:49 PM 53.6 °F - 35.6 °F 51% 29.81 in 10.0 mi SW 26.5 mph 33.4 mph 0.00 in   Mostly Cloudy
12:53 PM 53.1 °F - 35.1 °F 50% 29.77 in 10.0 mi WSW 24.2 mph 33.4 mph 0.00 in   Mostly Cloudy
1:08 PM 53.6 °F - 35.6 °F 51% 29.82 in 10.0 mi WSW 26.5 mph 34.5 mph 0.00 in Rain Light Rain
1:53 PM 48.0 °F - 41.0 °F 77% 29.80 in 10.0 mi West 24.2 mph 32.2 mph 0.01 in Rain Light Rain
2:53 PM 46.9 °F - 41.0 °F 80% 29.82 in 10.0 mi West 19.6 mph 26.5 mph 0.01 in Rain Light Rain
3:45 PM 44.6 °F 35.5 °F 39.2 °F 81% 29.86 in 10.0 mi West 25.3 mph 36.8 mph 0.05 in   Mostly Cloudy
3:53 PM 46.0 °F 38.3 °F 39.0 °F 76% 29.84 in 10.0 mi West 20.7 mph 33.4 mph 0.05 in   Mostly Cloudy
4:53 PM 44.6 °F 35.1 °F 35.6 °F 71% 29.87 in 10.0 mi West 27.6 mph 38.0 mph N/A   Mostly Cloudy
5:53 PM 44.1 °F 37.4 °F 33.1 °F 65% 29.88 in 10.0 mi West 13.8 mph 24.2 mph N/A   Mostly Cloudy
6:53 PM 41.0 °F 33.5 °F 32.0 °F 70% 29.94 in 10.0 mi NNW 13.8 mph 25.3 mph N/A   Mostly Cloudy
7:53 PM 37.0 °F 28.9 °F 28.9 °F 73% 29.99 in 10.0 mi WNW 12.7 mph 20.7 mph N/A   Mostly Cloudy
8:53 PM 34.0 °F 22.7 °F 26.1 °F 73% 30.01 in 10.0 mi WNW 19.6 mph 25.3 mph N/A   Scattered Clouds
9:53 PM 32.0 °F 20.5 °F 21.9 °F 66% 30.02 in 10.0 mi WNW 18.4 mph 24.2 mph N/A   Partly Cloudy
11:53 PM 30.9 °F 20.2 °F 21.9 °F 69% 30.09 in 10.0 mi WNW 15.0 mph - N/A   Mostly Cloudy